User: anonymous   Login
Location: Newark
(59.4564°N, 26.6917°E)
Time: 16:39:42
(UTC+00:00)
Language:

Vanguard 1 Rocket - Orbit

View from above orbital plane
View from above orbital plane
View from above satellite
View from above satellite

Ground track
Ground track

The orbit data is extracted from the following two-line orbital elements,

1    16U 58002A   19323.64037901 -.00000100 +00000-0 -10859-3 0  9999
2    16 034.2665 043.3160 2027479 068.9385 311.5406 10.48732968436700
Epoch (UTC): 19 November 2019 15:22:08
Eccentricity: 0.2027479
inclination: 34.2665°
perigee height: 651 km
apogee height: 4226 km
right ascension of ascending node: 43.3160°
argument of perigee: 68.9385°
revolutions per day: 10.48732968
mean anomaly at epoch: 311.5406°
orbit number at epoch: 43670

The dashed part of the orbit path shows where the satellite is in the earth's shadow,  

DLR